TimeMDT,TemperatureF,Dew PointF,Humidity,Sea Level PressureIn,VisibilityMPH,Wind Direction,Wind SpeedMPH,Gust SpeedMPH,PrecipitationIn,Events,Conditions,WindDirDegrees,DateUTC
12:15 AM,51.8,37.4,58,30.31,10.0,SSW,4.6,-,N/A,,Mostly Cloudy,200,2012-10-12 06:15:00
12:35 AM,51.8,37.4,58,30.31,10.0,South,3.5,-,N/A,,Partly Cloudy,190,2012-10-12 06:35:00
12:55 AM,51.8,35.6,54,30.31,10.0,Calm,Calm,-,N/A,,Clear,0,2012-10-12 06:55:00
1:15 AM,50.0,37.4,62,30.31,10.0,ESE,5.8,-,N/A,,Clear,120,2012-10-12 07:15:00
1:35 AM,50.0,37.4,62,30.30,10.0,Calm,Calm,-,N/A,,Clear,0,2012-10-12 07:35:00
1:55 AM,50.0,37.4,62,30.30,10.0,Calm,Calm,-,N/A,,Clear,0,2012-10-12 07:55:00
2:15 AM,48.2,37.4,66,30.30,10.0,NE,6.9,-,N/A,,Clear,50,2012-10-12 08:15:00
2:35 AM,46.4,35.6,66,30.29,10.0,NNW,4.6,-,N/A,,Partly Cloudy,340,2012-10-12 08:35:00
2:55 AM,44.6,37.4,76,30.29,10.0,North,6.9,-,N/A,,Clear,350,2012-10-12 08:55:00
3:15 AM,44.6,35.6,71,30.29,10.0,North,6.9,-,N/A,,Partly Cloudy,350,2012-10-12 09:15:00
3:35 AM,44.6,35.6,71,30.27,10.0,North,5.8,-,N/A,,Scattered Clouds,360,2012-10-12 09:35:00
3:55 AM,44.6,33.8,66,30.27,10.0,North,5.8,-,N/A,,Clear,360,2012-10-12 09:55:00
4:15 AM,44.6,33.8,66,30.27,10.0,North,8.1,-,N/A,,Partly Cloudy,350,2012-10-12 10:15:00
4:35 AM,42.8,33.8,70,30.27,10.0,North,4.6,-,N/A,,Partly Cloudy,350,2012-10-12 10:35:00
4:55 AM,44.6,35.6,71,30.26,10.0,ENE,5.8,-,N/A,,Clear,60,2012-10-12 10:55:00
5:15 AM,42.8,35.6,76,30.26,10.0,Calm,Calm,-,N/A,,Clear,0,2012-10-12 11:15:00
5:35 AM,42.8,33.8,70,30.25,10.0,NNE,4.6,-,N/A,,Clear,30,2012-10-12 11:35:00
5:55 AM,42.8,33.8,70,30.25,10.0,NE,5.8,-,N/A,,Partly Cloudy,40,2012-10-12 11:55:00
6:15 AM,42.8,33.8,70,30.26,10.0,NNE,4.6,-,N/A,,Partly Cloudy,20,2012-10-12 12:15:00
6:35 AM,42.8,35.6,76,30.26,10.0,NNE,6.9,-,N/A,,Clear,30,2012-10-12 12:35:00
6:55 AM,42.8,32.0,66,30.27,10.0,North,9.2,-,N/A,,Scattered Clouds,10,2012-10-12 12:55:00
7:15 AM,42.8,33.8,70,30.27,10.0,North,9.2,-,N/A,,Mostly Cloudy,10,2012-10-12 13:15:00
7:35 AM,41.0,33.8,76,30.26,10.0,North,6.9,-,N/A,,Overcast,360,2012-10-12 13:35:00
7:55 AM,41.0,33.8,76,30.26,10.0,North,11.5,-,N/A,,Scattered Clouds,360,2012-10-12 13:55:00
8:15 AM,42.8,33.8,70,30.25,10.0,North,9.2,-,N/A,,Mostly Cloudy,360,2012-10-12 14:15:00
8:35 AM,42.8,33.8,70,30.25,10.0,NNE,5.8,-,N/A,,Mostly Cloudy,20,2012-10-12 14:35:00
8:55 AM,44.6,37.4,76,30.25,10.0,East,6.9,-,N/A,,Overcast,80,2012-10-12 14:55:00
9:15 AM,44.6,35.6,71,30.24,10.0,NNE,8.1,-,N/A,,Overcast,20,2012-10-12 15:15:00
9:35 AM,44.6,37.4,76,30.24,10.0,NNE,8.1,-,N/A,,Overcast,30,2012-10-12 15:35:00
9:55 AM,46.4,37.4,71,30.24,10.0,NNW,6.9,-,N/A,,Overcast,340,2012-10-12 15:55:00
10:15 AM,46.4,39.2,76,30.22,10.0,North,8.1,-,N/A,,Overcast,360,2012-10-12 16:15:00
10:35 AM,46.4,39.2,76,30.23,10.0,NNE,6.9,-,N/A,,Overcast,30,2012-10-12 16:35:00
10:55 AM,46.4,39.2,76,30.22,10.0,NNE,8.1,-,0.01,,Overcast,30,2012-10-12 16:55:00
11:15 AM,46.4,39.2,76,30.20,10.0,East,4.6,18.4,N/A,,Overcast,80,2012-10-12 17:15:00
11:35 AM,46.4,39.2,76,30.20,10.0,North,3.5,-,N/A,,Mostly Cloudy,350,2012-10-12 17:35:00
11:55 AM,51.8,42.8,71,30.19,10.0,ESE,11.5,-,N/A,,Mostly Cloudy,120,2012-10-12 17:55:00
12:35 PM,51.8,39.2,62,30.14,10.0,East,21.9,29.9,N/A,,Mostly Cloudy,90,2012-10-12 18:35:00
12:55 PM,51.8,41.0,67,30.16,10.0,ESE,12.7,16.1,N/A,,Overcast,110,2012-10-12 18:55:00
1:15 PM,50.0,41.0,71,30.15,9.0,South,13.8,-,0.02,,Overcast,170,2012-10-12 19:15:00
1:35 PM,50.0,39.2,66,30.14,10.0,SE,12.7,28.8,0.02,,Mostly Cloudy,140,2012-10-12 19:35:00
1:55 PM,51.8,39.2,62,30.14,10.0,South,12.7,17.3,0.02,,Mostly Cloudy,170,2012-10-12 19:55:00
2:35 PM,46.4,37.4,71,30.14,10.0,South,12.7,-,0.01,,Overcast,170,2012-10-12 20:35:00
3:15 PM,51.8,37.4,58,30.11,10.0,SSE,4.6,-,N/A,,Clear,160,2012-10-12 21:15:00
3:35 PM,51.8,41.0,67,30.10,10.0,ENE,12.7,-,N/A,,Clear,60,2012-10-12 21:35:00
4:15 PM,51.8,37.4,58,30.07,10.0,East,10.4,-,N/A,,Clear,90,2012-10-12 22:15:00
4:55 PM,51.8,39.2,62,30.05,10.0,East,12.7,-,N/A,,Mostly Cloudy,100,2012-10-12 22:55:00
5:15 PM,51.8,37.4,58,30.04,10.0,East,11.5,-,N/A,Thunderstorm,Overcast,100,2012-10-12 23:15:00
5:35 PM,51.8,35.6,54,30.07,7.0,SW,18.4,26.5,N/A,Thunderstorm,Mostly Cloudy,230,2012-10-12 23:35:00
5:55 PM,46.4,37.4,71,30.08,10.0,South,9.2,-,N/A,,Mostly Cloudy,180,2012-10-12 23:55:00
6:15 PM,48.2,35.6,62,30.08,10.0,South,11.5,23.0,N/A,,Overcast,180,2012-10-13 00:15:00
6:55 PM,46.4,33.8,62,30.10,10.0,SSW,13.8,18.4,N/A,,Mostly Cloudy,200,2012-10-13 00:55:00
7:15 PM,46.4,35.6,66,30.12,10.0,SW,13.8,21.9,N/A,,Overcast,230,2012-10-13 01:15:00
8:15 PM,42.8,32.0,66,30.13,10.0,South,4.6,-,N/A,,Clear,180,2012-10-13 02:15:00
8:35 PM,39.2,32.0,75,30.14,10.0,SSE,5.8,-,N/A,,Partly Cloudy,150,2012-10-13 02:35:00
8:55 PM,41.0,33.8,76,30.14,10.0,SW,11.5,-,N/A,,Scattered Clouds,230,2012-10-13 02:55:00
9:15 PM,41.0,30.2,65,30.15,10.0,West,6.9,-,N/A,,Scattered Clouds,260,2012-10-13 03:15:00
9:55 PM,37.4,26.6,65,30.16,10.0,SE,9.2,-,N/A,,Clear,140,2012-10-13 03:55:00
10:15 PM,35.6,28.4,75,30.16,10.0,SE,5.8,-,N/A,,Clear,140,2012-10-13 04:15:00
10:35 PM,37.4,30.2,75,30.16,10.0,SSE,8.1,-,N/A,,Scattered Clouds,160,2012-10-13 04:35:00
10:55 PM,37.4,28.4,70,30.16,10.0,South,5.8,-,N/A,,Mostly Cloudy,190,2012-10-13 04:55:00
11:15 PM,35.6,28.4,75,30.16,10.0,WSW,4.6,-,N/A,,Mostly Cloudy,250,2012-10-13 05:15:00
11:55 PM,35.6,28.4,75,30.16,10.0,Calm,Calm,-,N/A,,Clear,0,2012-10-13 05:55:00